Regional Weather Roundup
Issued by NWS Newport/Morehead, NC

Current Version | Previous Version | Text Only | Print | Product List | Glossary On
Versions: 1 2 3 4 5 6 7 8 9 10 11 12 13 14 15 16 17 18 19 20 21 22 23 24 25 26 27 28 29 30 31 32 33 34 35 36 37 38 39 40 41 42 43 44 45 46 47 48 49 50
000
ASUS42 KMHX 072225
RWRMHX
WEATHER ROUNDUP FOR EASTERN NORTH CAROLINA
NATIONAL WEATHER SERVICE NEWPORT/MOREHEAD CITY NC
600 PM EDT TUE JUL 07 2015

NOTE: "FAIR" INDICATES FEW OR NO CLOUDS BELOW 12,000 FEET
WITH NO SIGNIFICANT WEATHER AND/OR OBSTRUCTIONS TO VISIBILITY

NCZ015>017-031-032-045>047-102-103-072300-
NORTH COAST

CITY           SKY/WX    TMP DP  RH WIND       PRES   REMARKS
EDENTON          N/A     89  73  58 S9        30.05F
ELIZABETH CITY SUNNY     89  72  56 S12       30.05F
KITTY HAWK     CLEAR     89  75  63 S7        30.06F
MANTEO         SUNNY     86  75  70 S20       30.08S

$$

NCZ045>047-081-094-103-104-072300-
CENTRAL COAST

CITY           SKY/WX    TMP DP  RH WIND       PRES   REMARKS
FRISCO         SUNNY     81  75  82 SW10      30.11F
SWANQUARTER      N/A     88 N/A N/A S22       30.06R

$$

NCZ095-097-098-100-101-072300-
SOUTHERN COAST

CITY           SKY/WX    TMP DP  RH WIND       PRES   REMARKS
BEAUFORT       SUNNY     84  74  71 SW18      30.11F
CEDAR ISLAND     N/A     88 N/A N/A S15       30.15S
JACKSONVILLE   PTSUNNY   85  73  67 S8        30.09F
PINEY ISLAND   CLEAR    N/A N/A N/A SW17G24   30.10S
WILMINGTON     SUNNY     86  71  60 S13       30.10F


$$

NCZ011>013-027>030-043-044-078>080-089-090>093-098-072300-
COASTAL PLAIN

CITY           SKY/WX    TMP DP  RH WIND       PRES   REMARKS
AHOSKIE        MOSUNNY   88  75  64 CALM      30.04F
CLINTON        MOSUNNY   90  74  58 S8        30.07F
ELIZABETHTOWN  PTSUNNY   85  72  64 S7        30.08F
GOLDSBORO      MOSUNNY   92  70  48 S8        30.04F
GREENVILLE     SUNNY     90  72  55 SW8       30.07F
HAVELOCK       PTSUNNY   85  71  63 S15G22    30.11S
KENANSVILLE    SUNNY     89  69  50 S5        30.08F
KINSTON        MOSUNNY   93  70  46 S10       30.07S
NEW BERN       SUNNY     85  73  67 SW10G22   30.10S
RICHLANDS      MOSUNNY   86  72  62 S10       30.09F
ROCKY MOUNT    MOSUNNY   92  69  47 S9        30.05F
WASHINGTON     MOSUNNY   86  74  67 S8G16     30.07S
WHITEVILLE     MOSUNNY   87  72  61 S10       30.09F

$$

AMZ130-135-150-152-154-156-158-170-250-252-270-ANZ085-086-088-633-658-670-072300-
MARINE OBSERVATIONS

STATION/POSITION TIME  TEMP    WIND        PRES    WAVE   SWELL
                       AIR SEA DIR/SP/G            HT/PER HT/PER
                 (UTC) (F)     (DEG/KT/KT) (MB)    (FT/S) (FT/S)
CHESAPEAKE LIGHT 2200   81     180/ 17/ 18 1017.4
64 E VA BEACH    2150   79 78  200/ 16/ 17 1017.8    3/ 9   2/ 9
DUCK             2200   87 75  210/ 12/ 14   N/A
2 E DUCK         2111      77                N/A     2/ 8   2/13
OREGON INLET     2200   82 85  190/ 18/ 22 1018.7
13E OREGON INLT  2200      79                N/A     3/ 8   2/14
HATTERAS CG      2200   81 82  200/ 10/ 15 1019.2
DIAMOND BUOY     2150   82 83  220/ 17/ 19 1019.5    3/ 9   2/ 9
CAPE LOOKOUT     2200   83     200/ 11/ 14 1019.5
BEAUFORT LAB     2200   82 83  200/ 16/ 19 1018.9
30 SE NEW RVR IN NOT AVBL
27 SE WRIGHTSVLE 2200      81  220/ 12/ 14   N/A
5 SE WRIGHTSVLE  2108   81 79  210/ 14/ 17 1019.8
225 S CAPE HAT   2150   83 81  210/ 10/ 12 1021.8    4/ 8   3/ 8
41 SE CHARLESTON 2150   83 83  200/ 12/ 14 1019.7    3/ 8   2/ 8

$$


USA.gov is the U.S. government's official web portal to all federal, state and local government web resources and services.